Regional Weather Roundup
Issued by NWS

Home | Current Version | Previous Version | Graphics & Text | Print | Product List | Glossary On
Versions: 1 2 3 4 5 6 7 8 9 10 11 12 13 14 15 16 17 18 19 20 21 22 23 24 25 26 27 28 29 30 31 32 33 34 35 36 37 38 39 40 41 42 43 44 45 46 47 48 49 50
000
ASUS43 KTOP 291208
RWRKS

WEATHER ROUNDUP FOR KANSAS
NATIONAL WEATHER SERVICE GOODLAND KS
700 AM CDT FRI MAY 29 2015

NOTE:  "FAIR" INDICATES FEW OR NO CLOUDS BELOW 12,000 FEET WITH NO
SIGNIFICANT WEATHER AND/OR OBSTRUCTIONS TO VISIBILITY.

KSZ001>006-013>018-027>032-041>047-291300-
NORTHWEST KANSAS

CITY           SKY/WX    TMP DP  RH WIND       PRES   REMARKS
GOODLAND       CLOUDY    54  51  90 NW12      30.05R
6HR MIN TEMP:  50; 6HR MAX TEMP:  54;

HAYS           MOCLDY    54  48  82 SW6       29.98S
HILL CITY      PTCLDY    53  51  93 W7        29.99R
6HR MIN TEMP:  53; 6HR MAX TEMP:  58;

RUSSELL        MOCLDY    57  55  93 S6        29.96S
6HR MIN TEMP:  56; 6HR MAX TEMP:  64; 6HR PCP: TRACE;

$$

KSZ061>065-074>080-084>089-291300-
SOUTHWEST KANSAS

CITY           SKY/WX    TMP DP  RH WIND       PRES   REMARKS
DODGE CITY     CLOUDY    56  53  90 N5        30.01R
6HR MIN TEMP:  55; 6HR MAX TEMP:  59;

ELKHART          N/A     53  48  83 W6          N/A
GARDEN CITY    PTCLDY    54  52  93 NW8       30.01R
6HR MIN TEMP:  52; 6HR MAX TEMP:  56;

GREAT BEND     MOCLDY    61  55  82 CALM      29.98S
LIBERAL        PTCLDY    55  52  88 NW5       30.02R
PRATT          MOCLDY    59  55  88 N7        30.00R
$$

KSZ066>073-081>083-090>101-291300-
SOUTHEAST KANSAS

CITY           SKY/WX    TMP DP  RH WIND       PRES   REMARKS
CHANUTE        RAIN      65  64  97 E10       30.01R
6HR MIN TEMP:  65; 6HR MAX TEMP:  69; 6HR PCP:  1.32;

COFFEYVILLE    CLOUDY    68  67  96 SE7       29.98R
6HR MIN TEMP:  68; 6HR MAX TEMP:  70; 6HR PCP:  0.16;

HUTCHINSON     CLOUDY    62  59  90 NW8       29.98R
6HR MIN TEMP:  59; 6HR MAX TEMP:  62;

MEDICINE LODGE   N/A     59  57  93 CALM      29.97R
NEWTON         CLOUDY    64  61  88 SE7       29.98R
PARSONS        RAIN      68  67  96 SE3       30.01S FOG
6HR MIN TEMP:  67; 6HR MAX TEMP:  70; 6HR PCP:  0.81;

WICHITA INTL   CLOUDY    68  66  93 SE5       29.96R
6HR MIN TEMP:  65; 6HR MAX TEMP:  68; 6HR PCP:  0.05;

WICHITA JABRA  CLOUDY    64  63  96 CALM      29.97R
6HR MIN TEMP:  63; 6HR MAX TEMP:  69; 6HR PCP:  0.73;

WICHITA MCCONL CLOUDY    67  66  97 E3        29.97R
WINFIELD       CLOUDY    69  68  96 S3        29.97R
6HR MIN TEMP:  69; 6HR MAX TEMP:  71; 6HR PCP:  0.01;

$$

KSZ007>012-019>026-033>040-048>060-102>105-291300-
NORTHEAST KANSAS

CITY           SKY/WX    TMP DP  RH WIND       PRES   REMARKS
CONCORDIA      CLOUDY    59  58  96 W3        29.95R
6HR MIN TEMP:  59; 6HR MAX TEMP:  61; 6HR PCP: TRACE;

EMPORIA        CLOUDY    64  63  96 SE6       29.95S
6HR MIN TEMP:  64; 6HR MAX TEMP:  67; 6HR PCP:  0.64;

LAWRENCE       CLOUDY    66  63  90 S12       29.95F
6HR MIN TEMP:  64; 6HR MAX TEMP:  66; 6HR PCP:  0.24;

MANHATTAN      CLOUDY    65  64  97 CALM      29.96R
6HR MIN TEMP:  64; 6HR MAX TEMP:  69; 6HR PCP:  0.06;

MARYSVILLE     LGT RAIN  64  63  94 S6        29.94R
OLATHE IND     LGT RAIN  64  63  96 SE8       29.99S
6HR MIN TEMP:  64; 6HR MAX TEMP:  65; 6HR PCP:  0.43;

OLATHE EXE     RAIN      64  64 100 S6        29.99S FOG
6HR MIN TEMP:  63; 6HR MAX TEMP:  65; 6HR PCP:  0.30;

SALINA         CLOUDY    62  59  90 CALM      29.96R
6HR MIN TEMP:  60; 6HR MAX TEMP:  66;

TOPEKA BILLARD CLOUDY    67  65  93 S5        29.94R
6HR MIN TEMP:  66; 6HR MAX TEMP:  67; 6HR PCP:  0.02;

TOPEKA FORBES  CLOUDY    67  64  90 S6        29.94R
6HR MIN TEMP:  67; 6HR MAX TEMP:  68; 6HR PCP:  0.10;

$$


USA.gov is the U.S. government's official web portal to all federal, state and local government web resources and services.